STARLINK-35394, 66023

Orbit data source: Space-Track

STARLINK-35394, 66023 is a payload satellite owned by SpaceX/Seattle (US) in LEO that was launched on Thu, 16 Oct 2025 UTC via an FALCON 9 launch vehicle from the Air Force Eastern Test Range (AFETR). Payload-class satellites include a variety of spacecraft equipped with specific instruments for various scientific and technological missions. These include communications satellites like Starlink; space stations such as the ISS; scientific satellites like the Hubble; Earth observation satellites from companies like Planet Labs, Umbra, and HawkEye 360; GPS; miniature CubeSats for education and research; and military/defense satellites.

Not visible in the next 10 days
Identifier
66023, 2025-232U
Orbit
LEO
Country
Flag of USUS
Related business
Manufacturer
SpaceX/Seattle
Mission
Operational spacecraft
Bus & Motor
STARLINK V2MO, Unknown motor
Mass
575 kg wet, ~530 kg dry
Launch date (UTC)
2025-10-16 (1 week ago)
Launch vehicle
FALCON 9
Launch site
Air Force Eastern Test Range (AFETR)
Object type
Payload
Rocket body
Debris
Shape & HBR
Unknown shape, 17.7 m
Radar Cross Section
RCS unknown

Expand to show TLE details & history
Last TLE update: 4 hours ago

TLE from 4 hours ago
0 STARLINK-35394
1 66023U 25232U   25299.16668980 -.01614558  00000-0 -74251-2 0  9995
2 66023  53.1555  13.9163 0001239  72.0512  60.6095 15.85726830  1909
Epoch: 2025-10-26T04:00Z
TLE epoch observation values (Epoch: 2025-10-26T04:00:01.998Z)
Latitude
36.16212°
Longitude
66.12671°
Altitude
316.671 km
Speed
7.723 km/s
True Right ascension
10h 43m 41s
True Declination
35° 59' 16"
Sunlit
Object was in daylight at epoch
Visualization orbit readout
Latitude
Unknown
Longitude
Unknown
Altitude
Unknown
Speed
Unknown
Apparent Right ascension
Unknown
Apparent Declination
Unknown
Sunlit
N/A
Visualization observer readout
Local Sidereal Time
03:40:51
Azimuth
Unknown
Elevation
Unknown
Doppler factor
Unknown
Orbital elements
Apogee altitude
315.371 km
Perigee altitude
313.713 km
Semi-major axis
6,692.679 km
Eccentricity
0.00012
Inclination
53.1555°
RAAN
13.9163°
Arg. of periapsis
72.0512°
True anomaly
60.62187°
Mean anomaly
60.6095°
Eccentric anomaly
60.61569°
Mean motion
3.96409 °/min
Orbital period
90.82 mins
BSTAR
-0.0074251
Loading maneuver chart data...
Computing Atmospheric mass density...
Loading historical data...
Loading historical data...
Loading historical data...
Loading historical data...
Loading historical data...
Loading historical data...
Loading historical data...

Documentation

Showing up to 5 results
|